Scottsdale, AZ

10:00 AM MST on December 15, 2017 (GMT -0700)
Scottsdale

Weather History for KSDL - May, 2013

Change the Weather History Date:

Saturday, May 18, 2013

  Actual Average Record
Temperature  
Mean Temperature 80 °F -  
Max Temperature 88 °F 91 °F 102 °F (2008)
Min Temperature 72 °F 66 °F 62 °F (2011)
Cooling Degree Days 15    
Growing Degree Days 30 (Base 50)    
Moisture  
Dew Point 39 °F    
Average Humidity 24    
Maximum Humidity 39    
Minimum Humidity 14    
Precipitation  
Precipitation 0.00 in - - ()
Sea Level Pressure  
Sea Level Pressure 29.81 in    
Wind  
Wind Speed 3 mph (WSW)    
Max Wind Speed 14 mph    
Max Gust Speed 18 mph    
Visibility 10 miles    
Events      
Averages and records for this station are not official NWS values.
T = Trace of Precipitation, MM = Missing Value Source: NWS Daily Summary

Daily Weather History Graph

Daily Weather History Graph

Search for Another Location

Airport or City:

Trip Planner

Search our weather history database for the weather conditions in past years. The results will help you decide how hot, cold, wet, or windy it might be!

Date:

Astronomy

May. 18, 2013 Rise Set
Actual Time 5:24 AM MST 7:23 PM MST
Civil Twilight 4:57 AM MST 7:51 PM MST
Nautical Twilight 4:23 AM MST 8:25 PM MST
Astronomical Twilight 3:47 AM MST 9:01 PM MST
Moon 12:49 PM MST (5/18) 12:58 AM MST (5/18)
Length of Visible Light 14h 54m
Length of Day
13h 59m
First Quarter, 56% of the Moon is Illuminated
May 18
First Quarter
May 24
Full
May 31
Last Quarter
Jun 8
New
Jun 16
First Quarter

Hourly Weather History & Observations

Time (MST) Temp. Dew Point Humidity Pressure Visibility Wind Dir Wind Speed Gust Speed Precip Events Conditions
12:53 AM 80.1 °F 37.0 °F 21% 29.78 in 10.0 mi Calm Calm - N/A   Clear
1:53 AM 78.1 °F 37.9 °F 24% 29.78 in 10.0 mi SW 4.6 mph - N/A   Clear
2:53 AM 77.0 °F 39.0 °F 25% 29.80 in 10.0 mi WSW 3.5 mph - N/A   Clear
3:53 AM 75.9 °F 41.0 °F 29% 29.81 in 10.0 mi Calm Calm - N/A   Clear
4:53 AM 73.0 °F 43.0 °F 34% 29.81 in 10.0 mi Calm Calm - N/A   Clear
5:53 AM 72.0 °F 44.1 °F 37% 29.84 in 10.0 mi NNE 3.5 mph - N/A   Clear
6:53 AM 73.0 °F 46.9 °F 39% 29.85 in 10.0 mi West 6.9 mph - N/A   Clear
7:53 AM 73.9 °F 46.0 °F 37% 29.86 in 10.0 mi Calm Calm - N/A   Clear
8:53 AM 77.0 °F 46.0 °F 33% 29.87 in 10.0 mi Calm Calm - N/A   Clear
9:53 AM 80.1 °F 44.1 °F 28% 29.86 in 10.0 mi Calm Calm - N/A   Clear
10:53 AM 82.0 °F 43.0 °F 25% 29.86 in 10.0 mi SW 8.1 mph - N/A   Clear
12:53 PM 86.0 °F 41.0 °F 20% 29.81 in 10.0 mi South 10.4 mph - N/A   Clear
1:53 PM 87.1 °F 39.0 °F 18% 29.80 in 10.0 mi SSW 8.1 mph - N/A   Clear
2:53 PM 88.0 °F 39.0 °F 18% 29.79 in 10.0 mi West 9.2 mph 18.4 mph N/A   Clear
3:53 PM 88.0 °F 33.1 °F 14% 29.78 in 10.0 mi SW 13.8 mph - N/A   Clear
4:53 PM 87.1 °F 34.0 °F 15% 29.77 in 10.0 mi West 9.2 mph - N/A   Clear
5:53 PM 87.1 °F 35.1 °F 16% 29.77 in 10.0 mi West 8.1 mph 16.1 mph N/A   Clear
6:53 PM 86.0 °F 34.0 °F 16% 29.77 in 10.0 mi WSW 6.9 mph - N/A   Clear
7:53 PM 84.0 °F 32.0 °F 15% 29.77 in 10.0 mi WSW 3.5 mph - N/A   Clear
8:53 PM 82.0 °F 35.1 °F 18% 29.78 in 10.0 mi Calm Calm - N/A   Clear
9:53 PM 81.0 °F 36.0 °F 20% 29.80 in 10.0 mi Calm Calm - N/A   Clear
10:53 PM 78.1 °F 37.0 °F 23% 29.80 in 10.0 mi Calm Calm - N/A   Clear
11:53 PM 79.0 °F 36.0 °F 21% 29.80 in 10.0 mi Calm Calm - N/A   Clear